Location: La Comballaz
(46.3780°N, 7.0817°E)
Time: 02:38:26
(UTC+00:00)

Cosmos-2242 - Pass Details

Date: 09 April 2020
Orbit: 590 x 618 km, 82.5° (Epoch: 03 June)

Event Time Altitude Azimuth Distance (km) Brightness Sun altitude
Exits shadow 20:08:40 23° 66° (ENE) 1,293 4.4 -19.2°
Drops below altitude 10° 20:11:15 10° 33° (NNE) 1,974 5.7 -19.5°
Sets 20:13:45 0° 20° (NNE) 2,889 6.7 -19.9°
